Terminal Aerodrome Forecast
Issued by NWS Portland, OR

Home | Current Version | Previous Version | Text Only | Print | Product List | Glossary On
Versions: 1 2 3 4 5 6 7 8 9 10 11 12 13 14 15 16 17 18 19 20 21 22 23 24 25 26 27 28 29 30 31 32 33
000
FTUS46 KPQR 201137
TAFAST
TAF
KAST 201137Z 2012/2112 16016G28KT 5SM -RA BR SCT015 BKN025 OVC035
      TEMPO 2014/2018 3SM RA BR BKN015 OVC025
     FM201800 20022G39KT 3SM RA BR BKN015 OVC025
     FM210500 22017G28KT 6SM -RA BKN015 OVC025=

USA.gov is the U.S. government's official web portal to all federal, state and local government web resources and services.